contact:dominique.lefevre@mio.osupytheas.fr, maurice.libes@osupytheas.fr, didier.mallarino@osupytheas.fr
Project:EMSO http://www.emso-fr.org/EMSO-France
Depth: 2436.0 m
Title:EMSO Ligure Ouest : Data MII capteur AQUADOPP
Date,Latitude,Longitude,X_East,Y_North,Z_Up,Amplitude_X,Amplitude_Y,Amplitude_Z,Batterie,SoundSpeed,Heading,Pitch,Roll,Pressure,TIS,Speed,Direction
, degrees North, degrees East, m.s-1, m.s-1,m.s-1, 1, 1, 1, Volt, m.s-1, degree, degree, degree, dbar, degree_C, m.s-1, degree
2022-01-03T00:04:03,42.805,6.029,-0.013,-0.016,-0.021,103.0,103.0,101.0,13.4,1505.2,327.5,-0.8,1.8,2470.627,13.28,0.02,219.1
2022-01-03T00:07:03,42.805,6.029,-0.022,-0.001,-0.049,104.0,104.0,102.0,13.3,1505.2,330.6,-0.7,1.9,2470.655,13.28,0.022,267.4
2022-01-03T00:10:03,42.805,6.029,-0.006,-0.033,-0.04,104.0,104.0,101.0,13.4,1505.2,328.4,-0.8,1.8,2470.618,13.29,0.033,190.3
2022-01-03T00:13:03,42.805,6.029,-0.005,-0.011,-0.04,106.0,103.0,101.0,13.4,1505.2,330.6,-0.7,1.8,2470.628,13.29,0.012,204.4
2022-01-03T00:16:03,42.805,6.029,-0.008,-0.02,0.003,104.0,104.0,101.0,13.4,1505.2,324.6,-0.7,1.8,2470.632,13.29,0.021,201.8
2022-01-03T00:19:03,42.805,6.029,-0.007,-0.02,-0.015,104.0,105.0,102.0,13.4,1505.2,326.3,-0.8,1.8,2470.614,13.29,0.021,199.3
2022-01-03T00:22:03,42.805,6.029,-0.011,-0.017,-0.022,104.0,106.0,102.0,13.4,1505.2,331.6,-0.7,1.8,2470.621,13.29,0.02,212.9
2022-01-03T00:25:03,42.805,6.029,-0.01,-0.01,-0.011,104.0,105.0,102.0,13.4,1505.2,323.4,-0.8,1.8,2470.614,13.29,0.014,225.0
2022-01-03T00:28:03,42.805,6.029,-0.029,-0.018,-0.013,105.0,103.0,102.0,13.4,1505.2,330.1,-0.7,1.8,2470.576,13.29,0.034,238.2
2022-01-03T00:31:03,42.805,6.029,-0.015,-0.015,-0.009,106.0,104.0,103.0,13.3,1505.2,326.2,-0.8,1.8,2470.609,13.29,0.021,225.0
2022-01-03T00:34:03,42.805,6.029,-0.014,-0.018,-0.008,106.0,104.0,103.0,13.3,1505.2,329.5,-0.7,1.9,2470.619,13.29,0.022,217.9
2022-01-03T00:37:03,42.805,6.029,-0.01,-0.007,-0.011,105.0,104.0,101.0,13.4,1505.2,326.5,-0.8,1.8,2470.594,13.29,0.012,235.0
2022-01-03T00:40:03,42.805,6.029,-0.013,-0.011,-0.025,105.0,105.0,101.0,13.3,1505.2,329.5,-0.7,1.8,2470.602,13.29,0.017,229.8
2022-01-03T00:43:03,42.805,6.029,-0.012,-0.027,-0.034,106.0,104.0,103.0,13.3,1505.2,329.2,-0.8,1.9,2470.598,13.29,0.029,204.0
2022-01-03T00:46:03,42.805,6.029,-0.003,-0.01,-0.016,106.0,104.0,103.0,13.4,1505.2,326.6,-0.8,1.8,2470.607,13.29,0.01,196.7
2022-01-03T00:49:03,42.805,6.029,-0.008,-0.012,-0.007,104.0,104.0,102.0,13.4,1505.2,326.9,-0.7,1.8,2470.592,13.29,0.014,213.7
2022-01-03T00:52:03,42.805,6.029,-0.004,-0.011,-0.004,105.0,105.0,102.0,13.4,1505.2,329.5,-0.7,1.8,2470.597,13.29,0.011,200.0
2022-01-03T00:55:03,42.805,6.029,-0.004,-0.007,-0.032,104.0,105.0,103.0,13.3,1505.2,329.0,-0.8,1.8,2470.603,13.29,0.008,209.7
2022-01-03T00:58:03,42.805,6.029,-0.018,-0.014,-0.01,105.0,103.0,102.0,13.4,1505.2,328.9,-0.7,1.8,2470.626,13.29,0.022,232.1
2022-01-03T02:04:03,42.805,6.029,-0.008,-0.013,0.009,106.0,106.0,103.0,13.4,1505.1,330.8,-0.8,1.8,2470.892,13.27,0.015,211.6
2022-01-03T02:07:03,42.805,6.029,-0.034,-0.012,0.006,106.0,104.0,102.0,13.3,1505.2,327.3,-0.8,1.8,2470.855,13.28,0.036,250.6
2022-01-03T02:10:03,42.805,6.029,-0.014,-0.011,-0.009,105.0,104.0,102.0,13.4,1505.2,331.0,-0.8,1.8,2470.852,13.28,0.017,231.8
2022-01-03T02:13:03,42.805,6.029,-0.017,-0.02,-0.011,104.0,104.0,103.0,13.4,1505.2,324.2,-0.8,1.8,2470.783,13.28,0.026,220.4
2022-01-03T02:16:03,42.805,6.029,-0.015,-0.014,-0.011,105.0,105.0,103.0,13.3,1505.2,329.4,-0.8,1.8,2470.778,13.28,0.02,227.0
2022-01-03T02:19:03,42.805,6.029,-0.005,-0.007,-0.011,105.0,104.0,102.0,13.3,1505.2,329.9,-0.8,1.8,2470.753,13.28,0.008,215.5
2022-01-03T02:22:03,42.805,6.029,-0.019,-0.019,-0.028,105.0,104.0,102.0,13.4,1505.2,328.3,-0.8,1.8,2470.693,13.29,0.026,225.0
2022-01-03T02:25:03,42.805,6.029,0.0,-0.018,-0.005,105.0,104.0,102.0,13.4,1505.2,328.9,-0.7,1.8,2470.702,13.29,0.018,180.0
2022-01-03T02:28:03,42.805,6.029,-0.01,-0.004,-0.007,105.0,104.0,103.0,13.4,1505.2,325.9,-0.8,1.8,2470.684,13.29,0.01,248.2
2022-01-03T02:31:03,42.805,6.029,0.003,-0.004,0.012,105.0,102.0,103.0,13.4,1505.2,327.5,-0.8,1.8,2470.672,13.29,0.005,143.1
2022-01-03T02:34:03,42.805,6.029,-0.01,-0.03,-0.022,105.0,104.0,102.0,13.4,1505.2,325.7,-0.8,1.8,2470.631,13.29,0.031,198.4
2022-01-03T02:37:03,42.805,6.029,-0.009,-0.014,-0.002,105.0,104.0,102.0,13.3,1505.2,326.3,-0.7,1.8,2470.604,13.29,0.016,212.7
2022-01-03T02:40:03,42.805,6.029,-0.001,-0.015,-0.018,104.0,104.0,103.0,13.4,1505.2,326.1,-0.7,1.8,2470.603,13.29,0.015,183.8
2022-01-03T02:43:03,42.805,6.029,-0.005,0.001,0.026,104.0,104.0,102.0,13.4,1505.2,328.1,-0.7,1.8,2470.605,13.29,0.005,281.3
2022-01-03T02:46:03,42.805,6.029,-0.007,0.011,-0.005,106.0,105.0,102.0,13.4,1505.2,330.0,-0.7,1.8,2470.54,13.29,0.013,327.5
2022-01-03T02:49:03,42.805,6.029,0.0,-0.013,-0.008,105.0,105.0,102.0,13.4,1505.2,325.5,-0.8,1.8,2470.541,13.29,0.013,180.0
2022-01-03T02:52:03,42.805,6.029,-0.013,-0.028,-0.005,106.0,105.0,102.0,13.3,1505.2,327.2,-0.8,1.8,2470.521,13.29,0.03,204.9
2022-01-03T02:55:03,42.805,6.029,-0.007,-0.011,-0.004,104.0,103.0,103.0,13.4,1505.2,331.5,-0.8,1.8,2470.481,13.29,0.013,212.5
2022-01-03T02:58:03,42.805,6.029,-0.017,-0.011,-0.023,105.0,104.0,102.0,13.4,1505.2,330.3,-0.7,1.8,2470.516,13.29,0.02,237.1
2022-01-03T03:04:03,42.805,6.029,-0.013,-0.017,-0.024,105.0,104.0,103.0,13.4,1505.2,329.8,-0.7,1.8,2470.506,13.29,0.021,217.4
2022-01-03T03:07:03,42.805,6.029,-0.014,-0.016,0.012,104.0,104.0,103.0,13.4,1505.2,324.2,-0.7,1.8,2470.529,13.29,0.021,221.2
2022-01-03T03:10:03,42.805,6.029,-0.027,0.004,-0.032,105.0,105.0,103.0,13.4,1505.2,330.4,-0.8,1.8,2470.52,13.29,0.027,278.4
2022-01-03T03:13:03,42.805,6.029,-0.028,-0.001,-0.009,104.0,104.0,102.0,13.4,1505.2,327.7,-0.8,1.8,2470.469,13.29,0.028,268.0
2022-01-03T03:16:03,42.805,6.029,-0.006,-0.021,-0.03,105.0,104.0,101.0,13.3,1505.2,328.6,-0.8,1.8,2470.51,13.29,0.021,195.9
2022-01-03T03:19:03,42.805,6.029,-0.023,-0.011,-0.018,105.0,104.0,102.0,13.4,1505.2,327.4,-0.8,1.9,2470.523,13.29,0.025,244.4
2022-01-03T03:22:03,42.805,6.029,-0.014,0.0,0.017,105.0,104.0,102.0,13.3,1505.2,329.8,-0.8,1.8,2470.489,13.29,0.014,270.0
2022-01-03T03:25:03,42.805,6.029,-0.021,-0.025,-0.002,105.0,104.0,102.0,13.4,1505.2,327.1,-0.8,1.8,2470.52,13.29,0.032,220.0
2022-01-03T03:28:03,42.805,6.029,-0.005,-0.031,-0.005,104.0,104.0,102.0,13.4,1505.2,331.3,-0.8,1.8,2470.509,13.29,0.031,189.2
2022-01-03T03:31:03,42.805,6.029,-0.005,-0.02,-0.027,105.0,104.0,101.0,13.4,1505.2,325.4,-0.7,1.8,2470.503,13.29,0.02,194.0
2022-01-03T03:34:03,42.805,6.029,-0.002,-0.024,-0.017,103.0,105.0,102.0,13.4,1505.2,324.9,-0.8,1.8,2470.463,13.29,0.024,184.8
2022-01-03T03:37:03,42.805,6.029,-0.022,-0.021,-0.025,103.0,106.0,103.0,13.4,1505.2,329.1,-0.7,1.9,2470.509,13.29,0.03,226.3
2022-01-03T03:40:03,42.805,6.029,0.0,-0.013,-0.023,104.0,105.0,102.0,13.4,1505.2,328.1,-0.8,1.8,2470.479,13.29,0.013,180.0
2022-01-03T03:43:03,42.805,6.029,-0.009,-0.011,-0.005,103.0,104.0,103.0,13.4,1505.2,326.2,-0.8,1.8,2470.488,13.29,0.014,219.3
2022-01-03T03:46:03,42.805,6.029,0.006,-0.01,0.0,105.0,104.0,102.0,13.3,1505.2,326.5,-0.7,1.8,2470.476,13.29,0.011,149.0
2022-01-03T03:49:03,42.805,6.029,0.008,0.01,-0.01,105.0,103.0,103.0,13.4,1505.2,327.7,-0.8,1.9,2470.467,13.29,0.012,38.7
2022-01-03T03:52:03,42.805,6.029,0.017,-0.03,-0.021,105.0,104.0,103.0,13.4,1505.2,328.8,-0.8,1.8,2470.474,13.29,0.034,150.5
2022-01-03T03:55:03,42.805,6.029,-0.002,-0.01,-0.037,105.0,104.0,102.0,13.4,1505.2,324.0,-0.8,1.8,2470.476,13.29,0.01,191.3
2022-01-03T03:58:03,42.805,6.029,-0.002,-0.012,-0.019,104.0,104.0,102.0,13.4,1505.2,325.9,-0.8,1.8,2470.513,13.29,0.012,189.5
2022-01-03T04:04:03,42.805,6.029,0.001,-0.039,-0.019,104.0,104.0,102.0,13.3,1505.2,331.3,-0.7,1.8,2470.55,13.28,0.039,178.5
2022-01-03T04:07:03,42.805,6.029,-0.007,-0.027,-0.023,105.0,105.0,102.0,13.4,1505.2,326.6,-0.8,1.8,2470.53,13.28,0.027,194.5
2022-01-03T04:10:03,42.805,6.029,-0.014,-0.007,0.016,105.0,104.0,103.0,13.4,1505.2,326.3,-0.7,1.8,2470.546,13.28,0.015,243.4
2022-01-03T04:13:03,42.805,6.029,-0.024,0.003,-0.039,104.0,104.0,103.0,13.4,1505.2,323.9,-0.8,1.8,2470.552,13.28,0.024,277.1
2022-01-03T04:16:03,42.805,6.029,0.003,-0.009,0.004,103.0,104.0,102.0,13.3,1505.2,327.2,-0.7,1.8,2470.543,13.28,0.009,161.6
2022-01-03T04:19:03,42.805,6.029,0.013,-0.022,-0.03,105.0,104.0,102.0,13.3,1505.2,328.9,-0.8,1.8,2470.53,13.28,0.025,149.4
2022-01-03T04:22:03,42.805,6.029,-0.005,-0.009,-0.021,105.0,104.0,103.0,13.4,1505.2,325.4,-0.8,1.8,2470.518,13.28,0.01,209.1
2022-01-03T04:25:03,42.805,6.029,0.0,-0.001,-0.007,105.0,102.0,102.0,13.4,1505.2,327.7,-0.8,1.8,2470.455,13.28,0.001,180.0
2022-01-03T04:28:03,42.805,6.029,-0.003,-0.009,-0.005,105.0,104.0,102.0,13.3,1505.2,326.6,-0.8,1.8,2470.501,13.28,0.009,198.4
2022-01-03T04:31:03,42.805,6.029,0.003,-0.015,-0.036,105.0,104.0,102.0,13.4,1505.2,326.3,-0.8,1.8,2470.581,13.28,0.015,168.7
2022-01-03T04:34:03,42.805,6.029,-0.027,-0.021,-0.023,105.0,103.0,103.0,13.4,1505.2,329.4,-0.8,1.8,2470.496,13.28,0.034,232.1
2022-01-03T04:37:03,42.805,6.029,-0.012,-0.039,0.005,105.0,104.0,102.0,13.4,1505.2,329.8,-0.8,1.8,2470.488,13.28,0.04,197.1
2022-01-03T04:40:03,42.805,6.029,-0.012,-0.037,-0.057,106.0,103.0,103.0,13.4,1505.2,324.9,-0.7,1.8,2470.446,13.28,0.038,198.0
2022-01-03T04:43:03,42.805,6.029,-0.003,-0.027,-0.028,106.0,105.0,102.0,13.4,1505.2,324.7,-0.8,1.8,2470.44,13.28,0.027,186.3
2022-01-03T04:46:03,42.805,6.029,-0.011,-0.005,-0.022,104.0,105.0,103.0,13.4,1505.2,323.7,-0.8,1.8,2470.473,13.28,0.012,245.6
2022-01-03T04:49:03,42.805,6.029,0.006,-0.022,-0.03,104.0,106.0,103.0,13.4,1505.2,327.5,-0.8,1.8,2470.447,13.28,0.022,164.7
2022-01-03T04:52:03,42.805,6.029,-0.002,-0.029,-0.016,105.0,104.0,102.0,13.4,1505.2,329.1,-0.8,1.8,2470.46,13.28,0.029,183.9
2022-01-03T04:55:03,42.805,6.029,-0.002,-0.019,-0.02,105.0,105.0,102.0,13.4,1505.2,326.6,-0.8,1.8,2470.419,13.28,0.019,186.0
2022-01-03T04:58:03,42.805,6.029,-0.004,-0.008,-0.034,105.0,103.0,103.0,13.4,1505.2,328.4,-0.7,1.8,2470.408,13.28,0.008,206.6
2022-01-03T05:04:03,42.805,6.029,-0.002,-0.049,-0.046,104.0,105.0,102.0,13.4,1505.2,326.5,-0.7,1.8,2470.469,13.28,0.049,182.3
2022-01-03T05:07:03,42.805,6.029,-0.025,-0.04,-0.045,106.0,105.0,102.0,13.4,1505.2,327.1,-0.8,1.8,2470.517,13.28,0.047,212.0
2022-01-03T05:10:03,42.805,6.029,-0.012,-0.011,-0.017,105.0,104.0,102.0,13.4,1505.2,325.9,-0.7,1.8,2470.504,13.28,0.016,227.5
2022-01-03T05:13:03,42.805,6.029,-0.016,-0.005,-0.014,105.0,104.0,102.0,13.3,1505.2,328.6,-0.8,1.8,2470.488,13.28,0.016,252.6
2022-01-03T05:16:03,42.805,6.029,-0.015,-0.027,-0.033,105.0,103.0,102.0,13.4,1505.2,329.5,-0.7,1.8,2470.474,13.28,0.03,209.1
2022-01-03T05:19:03,42.805,6.029,-0.009,-0.029,-0.001,104.0,104.0,102.0,13.4,1505.2,328.3,-0.7,1.8,2470.448,13.28,0.03,197.2
2022-01-03T05:22:03,42.805,6.029,-0.016,-0.014,-0.015,105.0,104.0,102.0,13.4,1505.2,327.7,-0.8,1.8,2470.463,13.28,0.021,228.8
2022-01-03T05:25:03,42.805,6.029,-0.01,-0.015,0.002,105.0,103.0,104.0,13.3,1505.2,331.4,-0.8,1.8,2470.467,13.28,0.018,213.7
2022-01-03T05:28:03,42.805,6.029,-0.012,-0.017,-0.032,104.0,104.0,101.0,13.3,1505.2,331.2,-0.8,1.8,2470.445,13.28,0.02,215.2
2022-01-03T05:31:03,42.805,6.029,-0.009,-0.019,-0.02,103.0,103.0,103.0,13.3,1505.2,329.4,-0.8,1.8,2470.494,13.28,0.021,205.3
2022-01-03T05:34:03,42.805,6.029,-0.01,-0.013,-0.003,104.0,103.0,102.0,13.3,1505.2,329.2,-0.8,1.8,2470.501,13.28,0.016,217.6
2022-01-03T05:37:03,42.805,6.029,-0.006,-0.029,-0.009,104.0,103.0,102.0,13.3,1505.2,330.5,-0.7,1.8,2470.504,13.28,0.029,191.7
2022-01-03T05:40:03,42.805,6.029,-0.015,-0.023,-0.042,104.0,104.0,102.0,13.4,1505.2,330.4,-0.8,1.8,2470.516,13.28,0.027,213.1
2022-01-03T05:43:03,42.805,6.029,0.001,-0.024,-0.01,106.0,103.0,102.0,13.3,1505.2,330.1,-0.8,1.8,2470.549,13.28,0.024,177.6
2022-01-03T05:46:03,42.805,6.029,-0.012,-0.025,-0.013,105.0,104.0,103.0,13.4,1505.2,330.0,-0.7,1.8,2470.526,13.28,0.027,205.6
2022-01-03T05:49:03,42.805,6.029,-0.015,-0.024,-0.022,105.0,104.0,102.0,13.3,1505.2,327.3,-0.8,1.9,2470.555,13.28,0.028,212.0
2022-01-03T05:52:03,42.805,6.029,-0.005,-0.008,-0.003,105.0,103.0,103.0,13.3,1505.2,324.8,-0.8,1.9,2470.561,13.28,0.009,212.0
2022-01-03T05:55:03,42.805,6.029,-0.005,-0.012,0.01,106.0,104.0,102.0,13.4,1505.2,328.0,-0.7,1.8,2470.59,13.28,0.013,202.6
2022-01-03T05:58:03,42.805,6.029,-0.039,-0.019,-0.016,105.0,105.0,102.0,13.4,1505.2,328.0,-0.8,1.8,2470.606,13.28,0.043,244.0
2022-01-03T06:04:03,42.805,6.029,-0.007,-0.019,-0.009,105.0,105.0,102.0,13.4,1505.2,331.0,-0.8,1.8,2470.607,13.28,0.02,200.2
2022-01-03T06:07:03,42.805,6.029,-0.007,-0.02,-0.005,106.0,104.0,102.0,13.4,1505.2,328.2,-0.8,1.8,2470.631,13.28,0.021,199.3
2022-01-03T06:10:03,42.805,6.029,-0.011,-0.011,-0.009,104.0,104.0,102.0,13.3,1505.2,327.6,-0.8,1.8,2470.635,13.28,0.015,225.0
2022-01-03T06:13:03,42.805,6.029,-0.01,-0.009,0.001,105.0,104.0,102.0,13.4,1505.2,331.4,-0.7,1.8,2470.666,13.28,0.013,228.0
2022-01-03T06:16:03,42.805,6.029,-0.013,-0.031,-0.046,105.0,103.0,104.0,13.4,1505.2,326.9,-0.8,1.8,2470.643,13.28,0.033,202.7
2022-01-03T06:19:03,42.805,6.029,-0.024,-0.024,-0.013,105.0,104.0,102.0,13.4,1505.2,329.1,-0.7,1.8,2470.683,13.28,0.033,225.0
2022-01-03T06:22:03,42.805,6.029,-0.009,-0.007,-0.009,105.0,106.0,102.0,13.3,1505.2,326.5,-0.7,1.8,2470.673,13.28,0.011,232.1
2022-01-03T06:25:03,42.805,6.029,-0.016,-0.022,-0.031,106.0,104.0,101.0,13.4,1505.2,331.7,-0.8,1.8,2470.671,13.28,0.027,216.0
2022-01-03T06:28:03,42.805,6.029,-0.012,-0.016,0.0,105.0,104.0,103.0,13.4,1505.2,330.9,-0.8,1.8,2470.681,13.28,0.02,216.9
2022-01-03T06:31:03,42.805,6.029,-0.015,-0.023,-0.029,105.0,104.0,104.0,13.3,1505.2,329.6,-0.8,1.8,2470.686,13.28,0.027,213.1
2022-01-03T06:34:03,42.805,6.029,-0.025,-0.008,-0.019,105.0,105.0,102.0,13.4,1505.2,326.9,-0.7,1.8,2470.693,13.28,0.026,252.3
2022-01-03T06:37:03,42.805,6.029,-0.009,-0.028,-0.033,105.0,106.0,102.0,13.4,1505.2,328.5,-0.8,1.8,2470.69,13.28,0.029,197.8
2022-01-03T06:40:03,42.805,6.029,-0.012,-0.031,-0.012,106.0,103.0,103.0,13.3,1505.2,326.8,-0.7,1.8,2470.706,13.28,0.033,201.2
2022-01-03T06:43:03,42.805,6.029,-0.027,-0.022,-0.056,106.0,103.0,104.0,13.4,1505.2,328.0,-0.8,1.8,2470.671,13.28,0.034,230.8
2022-01-03T06:46:03,42.805,6.029,-0.027,-0.035,-0.016,104.0,105.0,102.0,13.4,1505.2,327.0,-0.7,1.8,2470.76,13.28,0.044,217.7
2022-01-03T06:49:03,42.805,6.029,-0.011,-0.031,-0.01,105.0,105.0,102.0,13.4,1505.2,329.1,-0.8,1.8,2470.752,13.28,0.032,199.5
2022-01-03T06:52:03,42.805,6.029,-0.012,-0.013,-0.024,105.0,104.0,103.0,13.4,1505.2,327.5,-0.7,1.8,2470.779,13.28,0.017,222.7
2022-01-03T06:55:03,42.805,6.029,-0.026,-0.011,-0.015,104.0,104.0,103.0,13.3,1505.2,331.8,-0.7,1.8,2470.725,13.28,0.028,247.1
2022-01-03T06:58:03,42.805,6.029,-0.025,-0.009,-0.009,105.0,106.0,103.0,13.4,1505.2,326.4,-0.8,1.8,2470.746,13.28,0.026,250.2
2022-01-03T07:04:03,42.805,6.029,-0.028,-0.008,-0.008,105.0,104.0,103.0,13.3,1505.2,327.3,-0.7,1.8,2470.795,13.28,0.029,254.1
2022-01-03T07:07:03,42.805,6.029,-0.03,-0.026,-0.022,106.0,104.0,103.0,13.4,1505.2,327.6,-0.8,1.8,2470.761,13.28,0.039,229.1
2022-01-03T07:10:03,42.805,6.029,0.001,-0.029,-0.045,105.0,104.0,102.0,13.3,1505.2,328.0,-0.8,1.8,2470.746,13.28,0.029,178.0
2022-01-03T07:13:03,42.805,6.029,0.005,-0.016,-0.021,106.0,104.0,101.0,13.4,1505.2,324.5,-0.7,1.8,2470.763,13.29,0.016,162.6
2022-01-03T07:16:03,42.805,6.029,0.0,-0.019,-0.003,105.0,103.0,102.0,13.4,1505.2,325.4,-0.7,1.8,2470.768,13.29,0.019,180.0
2022-01-03T07:19:03,42.805,6.029,-0.016,-0.009,-0.023,104.0,105.0,103.0,13.4,1505.2,329.4,-0.7,1.8,2470.777,13.29,0.018,240.6
2022-01-03T07:22:03,42.805,6.029,-0.009,-0.027,-0.031,105.0,104.0,104.0,13.4,1505.2,331.9,-0.8,1.8,2470.783,13.29,0.028,198.4
2022-01-03T07:25:03,42.805,6.029,-0.021,-0.02,-0.017,105.0,104.0,103.0,13.4,1505.2,327.3,-0.7,1.8,2470.798,13.29,0.028,226.4
2022-01-03T07:28:03,42.805,6.029,0.0,-0.039,-0.028,106.0,103.0,102.0,13.4,1505.2,326.7,-0.7,1.8,2470.8,13.29,0.039,180.0
2022-01-03T07:31:03,42.805,6.029,-0.02,-0.018,-0.023,105.0,104.0,103.0,13.3,1505.2,325.9,-0.8,1.8,2470.775,13.29,0.026,228.0
2022-01-03T07:34:03,42.805,6.029,-0.015,-0.023,-0.053,105.0,104.0,103.0,13.4,1505.2,326.6,-0.8,1.9,2470.783,13.29,0.027,213.1
2022-01-03T07:37:03,42.805,6.029,-0.039,-0.015,-0.036,106.0,105.0,102.0,13.4,1505.2,332.1,-0.8,1.8,2470.803,13.29,0.041,249.0
2022-01-03T07:40:03,42.805,6.029,0.003,-0.038,-0.016,107.0,103.0,103.0,13.4,1505.2,325.0,-0.8,1.8,2470.742,13.29,0.038,175.5
2022-01-03T07:43:03,42.805,6.029,-0.026,-0.021,-0.01,104.0,104.0,103.0,13.4,1505.2,327.5,-0.8,1.8,2470.807,13.29,0.033,231.1
2022-01-03T07:46:03,42.805,6.029,-0.015,-0.045,-0.025,103.0,105.0,104.0,13.4,1505.2,326.3,-0.8,1.8,2470.842,13.29,0.047,198.4
2022-01-03T07:49:03,42.805,6.029,-0.01,-0.028,-0.027,107.0,104.0,103.0,13.3,1505.2,331.7,-0.8,1.8,2470.803,13.29,0.029,199.6
2022-01-03T07:52:03,42.805,6.029,-0.023,-0.033,-0.025,105.0,104.0,103.0,13.4,1505.2,331.0,-0.8,1.8,2470.778,13.29,0.04,214.9
2022-01-03T07:55:03,42.805,6.029,-0.02,-0.016,-0.007,105.0,104.0,103.0,13.4,1505.2,331.3,-0.8,1.8,2470.815,13.29,0.025,231.3
2022-01-03T07:58:03,42.805,6.029,-0.021,-0.015,-0.027,105.0,105.0,103.0,13.4,1505.2,329.8,-0.8,1.8,2470.809,13.29,0.025,234.5
2022-01-03T08:04:03,42.805,6.029,-0.021,-0.018,-0.002,107.0,104.0,103.0,13.4,1505.2,329.9,-0.8,1.8,2470.826,13.28,0.027,229.4
2022-01-03T08:07:03,42.805,6.029,-0.025,-0.027,-0.037,105.0,103.0,103.0,13.4,1505.2,328.2,-0.8,1.8,2470.817,13.28,0.036,222.8
2022-01-03T08:10:03,42.805,6.029,-0.027,-0.009,-0.039,105.0,105.0,103.0,13.4,1505.2,330.8,-0.7,1.8,2470.802,13.28,0.028,251.6
2022-01-03T08:13:03,42.805,6.029,-0.009,-0.004,-0.038,104.0,103.0,103.0,13.3,1505.2,331.0,-0.8,1.8,2470.802,13.28,0.009,246.0
2022-01-03T08:16:03,42.805,6.029,-0.008,-0.032,-0.023,105.0,105.0,103.0,13.4,1505.2,329.6,-0.8,1.8,2470.826,13.28,0.032,194.0
2022-01-03T08:19:03,42.805,6.029,-0.018,-0.02,-0.025,106.0,104.0,103.0,13.4,1505.2,327.6,-0.8,1.8,2470.813,13.28,0.026,222.0
2022-01-03T08:22:03,42.805,6.029,-0.003,-0.024,0.003,105.0,105.0,103.0,13.4,1505.2,331.8,-0.7,1.9,2470.818,13.29,0.024,187.1
2022-01-03T08:25:03,42.805,6.029,-0.012,-0.025,-0.038,107.0,105.0,101.0,13.4,1505.2,328.1,-0.8,1.8,2470.785,13.29,0.027,205.6
2022-01-03T08:28:03,42.805,6.029,-0.007,-0.023,0.002,104.0,106.0,102.0,13.4,1505.2,323.9,-0.8,1.8,2470.798,13.29,0.024,196.9
2022-01-03T08:31:03,42.805,6.029,0.011,-0.024,-0.001,106.0,104.0,104.0,13.4,1505.2,324.8,-0.8,1.8,2470.813,13.29,0.026,155.4
2022-01-03T08:34:03,42.805,6.029,-0.033,-0.016,-0.035,104.0,105.0,102.0,13.3,1505.2,324.0,-0.8,1.8,2470.775,13.29,0.036,244.1
2022-01-03T08:37:03,42.805,6.029,-0.037,-0.016,-0.001,104.0,104.0,103.0,13.4,1505.2,324.3,-0.7,1.9,2470.777,13.29,0.04,246.6
2022-01-03T08:40:03,42.805,6.029,-0.01,-0.043,-0.008,105.0,104.0,103.0,13.4,1505.2,327.2,-0.7,1.8,2470.759,13.29,0.044,193.1
2022-01-03T08:43:03,42.805,6.029,-0.026,-0.022,-0.01,105.0,104.0,102.0,13.3,1505.2,329.3,-0.8,1.8,2470.804,13.29,0.034,229.8
2022-01-03T08:46:03,42.805,6.029,-0.005,-0.022,0.0,105.0,108.0,102.0,13.4,1505.2,330.2,-0.7,1.8,2470.779,13.29,0.022,192.8
2022-01-03T08:49:03,42.805,6.029,-0.036,-0.015,-0.006,106.0,105.0,103.0,13.4,1505.2,325.3,-0.7,1.8,2470.781,13.29,0.039,247.4
2022-01-03T08:52:03,42.805,6.029,-0.014,-0.024,-0.036,106.0,104.0,102.0,13.3,1505.2,327.1,-0.8,1.8,2470.794,13.29,0.027,210.3
2022-01-03T08:55:03,42.805,6.029,-0.022,-0.02,-0.041,105.0,105.0,103.0,13.3,1505.2,330.3,-0.8,1.9,2470.754,13.29,0.029,227.7
2022-01-03T08:58:03,42.805,6.029,-0.023,-0.021,0.016,105.0,105.0,103.0,13.4,1505.2,329.9,-0.8,1.9,2470.744,13.29,0.031,227.6
2022-01-03T09:04:03,42.805,6.029,-0.01,-0.012,-0.008,106.0,105.0,102.0,13.4,1505.2,326.5,-0.8,1.8,2470.75,13.28,0.015,219.8
2022-01-03T09:07:03,42.805,6.029,-0.018,-0.007,-0.001,104.0,105.0,104.0,13.4,1505.2,329.7,-0.8,1.8,2470.765,13.28,0.019,248.8
2022-01-03T09:10:03,42.805,6.029,-0.019,-0.008,-0.013,106.0,104.0,102.0,13.4,1505.2,325.5,-0.7,1.8,2470.773,13.28,0.02,247.2
2022-01-03T09:13:03,42.805,6.029,-0.012,-0.026,-0.026,105.0,105.0,103.0,13.4,1505.2,328.4,-0.7,1.8,2470.73,13.28,0.028,204.8
2022-01-03T09:16:03,42.805,6.029,-0.019,-0.036,-0.014,107.0,105.0,102.0,13.4,1505.2,326.8,-0.8,1.8,2470.763,13.29,0.04,207.8
2022-01-03T09:19:03,42.805,6.029,-0.02,-0.015,-0.014,104.0,105.0,104.0,13.4,1505.2,329.7,-0.8,1.8,2470.749,13.29,0.025,233.1
2022-01-03T09:22:03,42.805,6.029,-0.034,-0.002,-0.019,105.0,104.0,103.0,13.4,1505.2,329.3,-0.8,1.9,2470.737,13.29,0.034,266.6
2022-01-03T09:25:03,42.805,6.029,-0.002,-0.014,-0.009,105.0,104.0,103.0,13.4,1505.2,323.7,-0.8,1.8,2470.765,13.29,0.014,188.1
2022-01-03T09:28:03,42.805,6.029,-0.013,-0.03,-0.016,106.0,104.0,103.0,13.4,1505.2,327.7,-0.7,1.8,2470.698,13.29,0.032,203.4
2022-01-03T09:31:03,42.805,6.029,-0.046,-0.014,0.0,106.0,105.0,103.0,13.4,1505.2,327.4,-0.8,1.8,2470.765,13.29,0.048,253.1
2022-01-03T09:34:03,42.805,6.029,-0.024,-0.023,-0.005,106.0,104.0,103.0,13.4,1505.2,327.9,-0.8,1.8,2470.74,13.29,0.033,226.2
2022-01-03T09:37:03,42.805,6.029,-0.019,-0.011,-0.003,105.0,105.0,103.0,13.4,1505.2,329.0,-0.7,1.8,2470.76,13.29,0.021,239.9
2022-01-03T09:40:03,42.805,6.029,-0.028,-0.026,-0.028,105.0,105.0,103.0,13.4,1505.2,328.3,-0.7,1.8,2470.713,13.29,0.038,227.1
2022-01-03T09:43:03,42.805,6.029,-0.006,-0.018,-0.033,105.0,105.0,103.0,13.3,1505.2,326.2,-0.8,1.9,2470.745,13.29,0.018,198.4
2022-01-03T09:46:03,42.805,6.029,-0.026,-0.017,-0.036,105.0,105.0,102.0,13.4,1505.2,331.4,-0.8,1.8,2470.74,13.29,0.031,236.8
2022-01-03T09:49:03,42.805,6.029,-0.015,-0.025,0.002,106.0,104.0,103.0,13.4,1505.2,328.3,-0.7,1.8,2470.687,13.29,0.029,211.0
2022-01-03T09:52:03,42.805,6.029,-0.021,-0.023,-0.008,106.0,105.0,103.0,13.4,1505.2,325.2,-0.7,1.8,2470.691,13.29,0.031,222.4
2022-01-03T09:55:03,42.805,6.029,-0.026,-0.042,-0.031,106.0,105.0,102.0,13.3,1505.2,329.0,-0.7,1.9,2470.663,13.29,0.049,211.8
2022-01-03T09:58:03,42.805,6.029,-0.033,-0.044,-0.035,106.0,105.0,102.0,13.4,1505.2,330.4,-0.8,1.8,2470.712,13.29,0.055,216.9
2022-01-03T10:04:03,42.805,6.029,-0.025,-0.024,-0.007,105.0,105.0,103.0,13.4,1505.2,324.9,-0.7,1.8,2470.693,13.28,0.034,226.2
2022-01-03T10:07:03,42.805,6.029,-0.031,-0.016,0.022,105.0,105.0,102.0,13.4,1505.2,327.7,-0.7,1.8,2470.624,13.28,0.034,242.7
2022-01-03T10:10:03,42.805,6.029,-0.018,-0.011,-0.022,106.0,104.0,103.0,13.4,1505.2,331.0,-0.7,1.8,2470.64,13.28,0.021,238.6
2022-01-03T10:13:03,42.805,6.029,-0.007,-0.025,-0.031,107.0,104.0,103.0,13.3,1505.2,324.1,-0.7,1.8,2470.639,13.28,0.025,195.6
2022-01-03T10:16:03,42.805,6.029,-0.003,-0.027,-0.024,104.0,105.0,102.0,13.3,1505.2,329.8,-0.8,1.8,2470.671,13.28,0.027,186.3
2022-01-03T10:19:03,42.805,6.029,-0.029,-0.018,-0.011,105.0,105.0,102.0,13.3,1505.2,331.5,-0.7,1.8,2470.657,13.28,0.034,238.2
2022-01-03T10:22:03,42.805,6.029,-0.026,-0.023,-0.017,104.0,105.0,104.0,13.4,1505.2,324.9,-0.7,1.8,2470.635,13.28,0.034,228.5
2022-01-03T10:25:03,42.805,6.029,-0.017,-0.013,-0.017,106.0,104.0,103.0,13.3,1505.2,327.6,-0.7,1.8,2470.657,13.28,0.021,232.6
2022-01-03T10:28:03,42.805,6.029,-0.018,-0.026,-0.025,105.0,105.0,103.0,13.4,1505.2,328.2,-0.8,1.8,2470.629,13.28,0.031,214.7
2022-01-03T10:31:03,42.805,6.029,-0.028,-0.013,-0.022,106.0,104.0,102.0,13.4,1505.2,327.6,-0.7,1.8,2470.616,13.28,0.03,245.1
2022-01-03T10:37:03,42.805,6.029,-0.028,-0.021,-0.033,105.0,105.0,103.0,13.3,1505.2,329.7,-0.7,1.8,2470.639,13.28,0.035,233.1
2022-01-03T10:40:03,42.805,6.029,-0.039,-0.005,0.015,107.0,106.0,104.0,13.4,1505.2,328.2,-0.7,1.8,2470.619,13.29,0.039,262.7
2022-01-03T10:43:03,42.805,6.029,-0.022,-0.036,-0.011,106.0,105.0,103.0,13.4,1505.2,329.8,-0.7,1.8,2470.622,13.28,0.042,211.4
2022-01-03T10:46:03,42.805,6.029,-0.026,-0.028,0.0,105.0,106.0,104.0,13.3,1505.2,329.3,-0.8,1.8,2470.62,13.28,0.038,222.9
2022-01-03T10:49:03,42.805,6.029,-0.019,-0.016,-0.028,106.0,105.0,104.0,13.4,1505.2,328.6,-0.7,1.8,2470.624,13.28,0.024,229.9
2022-01-03T10:52:03,42.805,6.029,-0.038,-0.002,-0.01,105.0,106.0,103.0,13.4,1505.2,324.8,-0.8,1.8,2470.625,13.28,0.038,267.0